Location: Brabourne
(51.1333°N, 1.0000°E)
Time: 08:47:57
(UTC+00:00)

ATLAS 5 CENTAUR R/B - Pass Details

Date: 20 June 2021
Orbit: 510 x 1148 km, 63.4° (Epoch: 28 July)

Event Time Altitude Azimuth Distance (km) Brightness Sun altitude
Exits shadow 00:47:52 10° 136° (SE) 1,788 3.6 -14.6°
Maximum altitude 00:49:35 13° 111° (ESE) 1,673 3.7 -14.6°
Drops below altitude 10° 00:51:27 10° 84° (E) 1,898 4.3 -14.5°
Sets 00:54:59 0° 56° (ENE) 2,928 5.8 -14.4°
